Location: Eckley
(40.9930°N, 75.8630°W)
Time: 09:32:17
(UTC-05:00)

Daily predictions for brighter satellites

Satellite Brightness Start Highest point End
(mag) Time Altitude Azimuth Time Altitude Azimuth Time Altitude Azimuth
Cosmos 2154 Rocket 4.4 16:59:09 10° NNW 17:05:20 70° W 17:11:33 10° S
Cosmos 2263 Rocket 3.9 17:00:58 10° WSW 17:05:44 28° NW 17:10:34 10° N
PAYLOAD A 3.9 17:06:05 10° SSE 17:10:52 78° ENE 17:15:51 10° N
Cosmos 1536 Rocket 4.3 17:15:46 10° SSE 17:19:45 33° E 17:23:47 10° NNE
Tiangong 1 3.2 17:21:28 10° S 17:23:23 16° SSE 17:25:19 10° ESE
USA 234 3.5 17:17:20 10° NE 17:23:51 72° NW 17:30:20 10° WSW
SPOT 3 Rocket 3.5 17:19:46 10° SSE 17:24:56 73° ENE 17:30:07 10° N
Okean 1 4.1 17:23:14 10° SSE 17:26:52 33° E 17:30:31 10° NNE
Meteor 1-18 Rocket 4.4 17:22:25 10° S 17:27:52 54° E 17:33:27 10° NNE
YAOGAN 1 2.5 17:23:40 10° SSE 17:27:57 68° ENE 17:32:16 10° N
Cosmos 1536 4.2 17:24:28 10° NNW 17:28:20 44° W 17:32:12 10° SSW
Cosmos 1844 Rocket 2.9 17:25:14 10° SSW 17:30:48 75° WNW 17:36:27 10° NNE
Cosmos 1812 2.9 17:27:26 10° S 17:31:11 52° E 17:34:57 10° NNE
BREEZE M DEB (TANK) 4.1 17:21:59 10° SW 17:32:36 42° SSE 17:35:33 15° E
COSMOS 2487 3.8 17:33:39 10° NNE 17:36:25 20° ENE 17:38:37 13° ESE
EP 2 4.3 17:34:18 10° SSW 17:36:52 57° ESE 17:38:30 20° NE
AQUARIUS 4.2 17:32:40 10° SSE 17:37:10 88° WSW 17:41:41 10° NNW
USA 32 4.0 17:32:33 10° S 17:37:47 89° W 17:43:02 10° N
NOSS 3-3 (A) 4.2 17:32:05 10° SSW 17:38:04 57° ESE 17:44:01 12° NE
NOSS 3-3 (C) 4.2 17:32:12 10° SSW 17:38:10 56° ESE 17:44:05 12° NE
Meteor 2-19 Rocket 4.4 17:32:17 10° N 17:38:22 88° E 17:44:26 10° S
SL-8 Rocket 4.1 17:33:45 10° N 17:39:56 81° W 17:46:04 10° S
ISS -1.9 17:36:59 10° W 17:39:58 30° NNW 17:42:12 15° NNE
Cosmos 1346 Rocket 3.5 17:39:22 10° SSE 17:42:51 31° E 17:45:20 16° NE
IDEFIX/ARIANE 42P 2.7 17:40:17 10° S 17:45:29 77° WSW 17:50:42 10° NNW
CORIOLIS 4.2 17:40:29 10° SSE 17:45:55 86° WSW 17:51:21 10° NNW
ASTRO F (AKARI) 4.1 17:43:44 10° NNE 17:46:53 71° ESE 17:50:00 10° S
ATLAS 2AS CENTAUR R/B 3.1 17:38:57 10° NW 17:47:04 89° WSW 17:54:37 10° SSE
Cosmos 494 Rocket 3.9 17:41:57 10° NNW 17:47:14 80° ENE 17:52:29 10° SSE
Cosmos 1844 3.9 17:42:00 10° SSW 17:47:34 73° WNW 17:53:08 10° NNE
Cosmos 1455 Rocket 3.0 17:44:37 10° N 17:49:04 88° E 17:53:29 10° S
SKYMED 2 3.9 17:45:42 10° NNE 17:49:52 44° E 17:54:01 10° S
Cosmos 2297 4.4 17:44:56 10° SSE 17:49:54 33° ESE 17:53:05 19° NE
Cosmos 2366 rocket 4.0 17:44:48 10° N 17:51:12 90° E 17:57:30 10° S
Okean 1-7 Rocket 4.5 17:49:18 10° SSE 17:53:08 28° E 17:54:42 23° NE
CZ-3B DEB 2.3 17:51:18 10° WSW 17:54:58 72° NW 18:02:17 16° NE
Cosmos 2218 Rocket 4.2 17:49:32 10° N 17:55:49 74° W 18:01:59 10° S
MSX 3.8 17:52:25 10° SSE 17:58:10 89° WSW 18:03:57 10° NNW
Thor Agena Rocket 4.3 17:56:50 10° N 18:01:53 53° WNW 18:06:58 10° SSW
CZ-4 R/B 3.4 17:58:45 10° SSW 18:02:32 32° W 18:06:18 10° NNW
Cosmos 1809 Rocket 4.4 17:56:31 10° N 18:02:38 63° E 18:08:41 10° SSE
SMAP 4.2 17:58:56 10° S 18:03:24 47° W 18:07:54 10° NNW
Abrixas 3.9 18:01:17 10° NW 18:03:36 24° N 18:03:36 24° N
Cosmos 2278 Rocket 2.2 17:58:23 10° SSW 18:04:02 88° WNW 18:09:20 12° NNE
Cosmos 1241 Rocket 4.5 17:57:54 10° NNW 18:04:33 77° ENE 18:11:07 10° SE
SL-24 DEB 4.2 17:59:58 10° N 18:04:44 87° E 18:09:26 10° S
Cosmos 1238 Rocket 3.7 18:04:35 10° SSW 18:07:19 35° W 18:10:09 10° N
OTV 4 3.5 18:06:54 10° SW 18:08:02 12° SSW 18:09:10 10° S
BREEZE-M R/B 4.2 17:58:10 10° WSW 18:09:18 85° NNW 18:12:20 28° NE
CZ-2C R/B 3.8 18:04:59 10° S 18:09:40 43° W 18:14:32 10° NNW
Timation 2 Rocket 4.3 18:03:32 10° NNW 18:10:13 54° ENE 18:16:55 10° SE
Cosmos 1975 2.9 18:07:19 10° N 18:11:24 78° W 18:15:26 10° S
Cosmos 2251 Rocket 4.4 18:08:38 10° NNW 18:13:50 51° WSW 18:18:56 10° S
Meteor 1-19 Rocket 4.5 18:08:45 10° SSE 18:14:14 47° E 18:18:28 17° NNE
Genesis I 3.0 18:18:23 10° NNW 18:22:19 73° ENE 18:23:19 47° SE
NOAA 12 4.0 18:20:15 10° SSE 18:25:26 60° ENE 18:30:37 10° N
Cosmos 1821 Rocket 4.0 18:20:05 10° N 18:26:02 52° ENE 18:31:57 10° SSE
OE (NEXTSAT) 4.2 18:22:37 10° WSW 18:26:12 85° SSE 18:26:20 81° ESE
Cosmos 1484 Rocket 3.5 18:25:05 10° S 18:28:45 52° W 18:32:25 10° NNW
TIMED 4.4 18:24:46 10° S 18:29:06 72° ESE 18:30:00 53° NE
SL-8 R/B 3.9 18:24:49 10° WSW 18:29:34 65° NNW 18:30:50 45° NE
Cosmos 2082 Rocket 2.1 18:24:05 10° NNW 18:29:42 61° ENE 18:33:41 19° SE
DMSP B5D1-3 4.4 18:25:25 13° NNE 18:30:00 87° ESE 18:35:08 10° SSW
Cosmos 1833 Rocket 2.7 18:25:48 10° NNW 18:31:19 53° ENE 18:33:05 38° ESE
Meteor 1-13 Rocket 4.1 18:25:52 10° S 18:31:32 82° E 18:37:11 11° NNE
METEOR-M 4.1 18:28:19 10° SSE 18:33:33 60° ENE 18:38:48 10° N
NOSS 2-1 (D) 3.8 18:30:33 10° SSW 18:33:30 43° SSE 18:33:30 43° SSE
NOSS 2-1 (C) 3.9 18:31:14 10° SSW 18:34:09 42° SSE 18:34:09 42° SSE
COSMO-SKYMED 1 3.3 18:34:05 12° N 18:37:54 52° WNW 18:42:07 10° SSW
Meteor 1-23 Rocket 4.3 18:38:04 10° S 18:43:22 52° ESE 18:43:22 52° ESE
Meteor 1-28 Rocket 3.4 18:45:29 67° WNW 18:45:35 68° WNW 18:49:21 10° SSW
Nadezhda 3 Rocket 4.3 18:42:26 10° SSW 18:48:35 67° W 18:54:50 10° N
NOSS 2-1 (E) 4.3 18:49:39 10° SSW 18:52:09 39° SSW 18:52:09 39° SSW
Timation 1 Rocket 4.2 18:47:47 10° SSW 18:53:45 90° WNW 18:55:27 50° NNE
GEOS 3 Rocket 3.9 18:53:31 22° SSE 18:56:46 65° WSW 19:01:52 10° NW
Meteor 2-4 Rocket 3.4 18:53:03 10° S 18:58:27 81° E 18:58:30 81° E
Tiangong 1 3.8 18:56:14 10° WSW 18:57:11 18° WSW 18:57:11 18° WSW
Cosmos 2056 Rocket 4.4 18:57:30 10° S 19:00:49 37° SSE 19:00:49 37° SSE
Cosmos 1025 Rocket 4.2 19:04:47 10° SSW 19:07:27 36° SSW 19:07:27 36° SSW
ATLAS 3B CENTAUR R/B 4.0 18:58:44 10° WSW 19:13:08 37° SSW 19:15:58 29° SSE
Cosmos 921 Rocket 4.2 19:11:02 10° SW 19:14:35 39° W 19:14:35 39° W
Cosmos 1371 Rocket 4.5 19:15:42 10° SSW 19:20:09 59° SW 19:20:09 59° SW
BREEZE M DEB (TANK) 3.8 19:16:57 10° NW 19:21:25 74° NNE 19:21:54 71° ENE
NOSS 3-4 (A) 3.8 19:15:46 10° NNW 19:22:00 65° NNE 19:22:00 65° NNE
NOSS 3-4 (C) 3.8 19:15:52 10° NNW 19:22:02 64° NNE 19:22:02 64° NNE
CZ-3B DEB 4.5 20:25:43 10° WNW 20:30:54 37° NNW 20:30:54 37° NNW
